Time,TemperatureF,DewpointF,PressureIn,WindDirection,WindDirectionDegrees,WindSpeedMPH,WindSpeedGustMPH,Humidity,HourlyPrecipIn,Conditions,Clouds,dailyrainin,SoftwareType,DateUTC
2013-02-21 00:01:00,16.0,9.0,30.35,ESE,110,0.0,0.0,75,0.00,,,0.00,,2013-02-21 06:01:00,
2013-02-21 00:11:00,16.0,9.0,30.35,ESE,110,0.0,0.0,75,0.00,,,0.00,,2013-02-21 06:11:00,
2013-02-21 00:21:00,16.0,10.0,30.35,ESE,110,0.0,0.0,76,0.00,,,0.00,,2013-02-21 06:21:00,
2013-02-21 00:31:00,16.0,10.0,30.35,ESE,110,0.0,0.0,76,0.00,,,0.00,,2013-02-21 06:31:00,
2013-02-21 00:41:00,16.0,10.0,30.35,ESE,110,0.0,0.0,76,0.00,,,0.00,,2013-02-21 06:41:00,
2013-02-21 00:51:00,17.0,11.0,30.35,ESE,110,0.0,1.0,76,0.00,,,0.00,,2013-02-21 06:51:00,
2013-02-21 01:01:00,17.0,11.0,30.35,ESE,110,0.0,0.0,76,0.00,,,0.00,,2013-02-21 07:01:00,
2013-02-21 01:11:00,17.0,10.0,30.34,ESE,121,0.0,3.0,75,0.00,,,0.00,,2013-02-21 07:11:00,
2013-02-21 01:21:00,17.0,10.0,30.34,ESE,121,0.0,3.0,75,0.00,,,0.00,,2013-02-21 07:21:00,
2013-02-21 01:32:00,17.0,10.0,30.34,ESE,121,0.0,2.0,74,0.00,,,0.00,,2013-02-21 07:32:00,
2013-02-21 01:42:00,17.0,10.0,30.34,ESE,121,0.0,2.0,73,0.00,,,0.00,,2013-02-21 07:42:00,
2013-02-21 01:52:00,17.0,10.0,30.34,ESE,121,0.0,2.0,73,0.00,,,0.00,,2013-02-21 07:52:00,
2013-02-21 02:01:00,17.0,10.0,30.34,East,98,0.0,2.0,73,0.00,,,0.00,,2013-02-21 08:01:00,
2013-02-21 02:11:00,16.0,9.0,30.34,East,98,0.0,0.0,73,0.00,,,0.00,,2013-02-21 08:11:00,
2013-02-21 02:21:00,16.0,9.0,30.34,East,98,0.0,0.0,73,0.00,,,0.00,,2013-02-21 08:21:00,
2013-02-21 02:32:00,15.0,9.0,30.34,East,98,0.0,0.0,75,0.00,,,0.00,,2013-02-21 08:32:00,
2013-02-21 02:42:00,15.0,9.0,30.34,East,98,0.0,0.0,75,0.00,,,0.00,,2013-02-21 08:42:00,
2013-02-21 02:52:00,15.0,9.0,30.34,East,98,0.0,0.0,75,0.00,,,0.00,,2013-02-21 08:52:00,
2013-02-21 03:01:00,14.0,8.0,30.34,East,98,0.0,0.0,76,0.00,,,0.00,,2013-02-21 09:01:00,
2013-02-21 03:11:00,14.0,8.0,30.34,East,98,0.0,0.0,76,0.00,,,0.00,,2013-02-21 09:11:00,
2013-02-21 03:22:00,13.0,7.0,30.35,East,98,0.0,0.0,77,0.00,,,0.00,,2013-02-21 09:22:00,
2013-02-21 03:31:00,13.0,7.0,30.35,East,98,0.0,0.0,78,0.00,,,0.00,,2013-02-21 09:31:00,
2013-02-21 03:41:00,13.0,7.0,30.35,East,98,0.0,0.0,78,0.00,,,0.00,,2013-02-21 09:41:00,
2013-02-21 03:52:00,12.0,7.0,30.34,East,98,0.0,0.0,79,0.00,,,0.00,,2013-02-21 09:52:00,
2013-02-21 04:01:00,12.0,7.0,30.34,East,98,0.0,0.0,80,0.00,,,0.00,,2013-02-21 10:01:00,
2013-02-21 04:11:00,12.0,7.0,30.34,East,98,0.0,0.0,80,0.00,,,0.00,,2013-02-21 10:11:00,
2013-02-21 04:21:00,12.0,7.0,30.32,East,98,0.0,0.0,80,0.00,,,0.00,,2013-02-21 10:21:00,
2013-02-21 04:31:00,12.0,7.0,30.30,East,98,0.0,0.0,81,0.00,,,0.00,,2013-02-21 10:31:00,
2013-02-21 04:41:00,12.0,7.0,30.30,East,98,0.0,0.0,81,0.00,,,0.00,,2013-02-21 10:41:00,
2013-02-21 04:51:00,13.0,9.0,30.30,East,98,0.0,2.0,82,0.00,,,0.00,,2013-02-21 10:51:00,
2013-02-21 05:01:00,13.0,8.0,30.28,ENE,78,1.0,2.0,81,0.00,,,0.00,,2013-02-21 11:01:00,
2013-02-21 05:11:00,13.0,8.0,30.28,ENE,78,1.0,2.0,81,0.00,,,0.00,,2013-02-21 11:11:00,
2013-02-21 05:21:00,14.0,9.0,30.29,ENE,77,0.0,2.0,80,0.00,,,0.00,,2013-02-21 11:21:00,
2013-02-21 05:31:00,14.0,9.0,30.33,East,81,0.0,0.0,80,0.00,,,0.00,,2013-02-21 11:31:00,
2013-02-21 05:41:00,14.0,9.0,30.33,East,81,0.0,0.0,80,0.00,,,0.00,,2013-02-21 11:41:00,
2013-02-21 05:52:00,14.0,9.0,30.33,East,81,0.0,0.0,80,0.00,,,0.00,,2013-02-21 11:52:00,
2013-02-21 06:01:00,14.0,9.0,30.33,East,81,0.0,0.0,80,0.00,,,0.00,,2013-02-21 12:01:00,
2013-02-21 06:11:00,14.0,9.0,30.33,East,81,0.0,0.0,80,0.00,,,0.00,,2013-02-21 12:11:00,
2013-02-21 06:21:00,13.0,8.0,30.33,East,81,0.0,0.0,80,0.00,,,0.00,,2013-02-21 12:21:00,
2013-02-21 06:32:00,13.0,8.0,30.32,East,81,0.0,1.0,80,0.00,,,0.00,,2013-02-21 12:32:00,
2013-02-21 06:42:00,13.0,8.0,30.29,East,81,0.0,2.0,80,0.00,,,0.00,,2013-02-21 12:42:00,
2013-02-21 06:53:00,13.0,8.0,30.29,East,81,0.0,2.0,80,0.00,,,0.00,,2013-02-21 12:53:00,
2013-02-21 07:01:00,14.0,9.0,30.28,East,81,0.0,1.0,80,0.00,,,0.00,,2013-02-21 13:01:00,
2013-02-21 07:12:00,14.0,9.0,30.28,East,81,0.0,1.0,80,0.00,,,0.00,,2013-02-21 13:12:00,
2013-02-21 07:22:00,14.0,9.0,30.29,East,82,1.0,2.0,80,0.00,,,0.00,,2013-02-21 13:22:00,
2013-02-21 07:32:00,15.0,10.0,30.30,East,83,0.0,3.0,80,0.00,,,0.00,,2013-02-21 13:32:00,
2013-02-21 07:41:00,15.0,10.0,30.30,East,83,0.0,3.0,80,0.00,,,0.00,,2013-02-21 13:41:00,
2013-02-21 07:52:00,15.0,10.0,30.30,East,83,0.0,3.0,79,0.00,,,0.00,,2013-02-21 13:52:00,
2013-02-21 08:02:00,16.0,10.0,30.32,ENE,76,1.0,4.0,77,0.00,,,0.00,,2013-02-21 14:02:00,
2013-02-21 08:11:00,16.0,10.0,30.32,ENE,76,1.0,4.0,77,0.00,,,0.00,,2013-02-21 14:11:00,
2013-02-21 08:21:00,17.0,10.0,30.32,ESE,107,0.0,5.0,74,0.00,,,0.00,,2013-02-21 14:21:00,
2013-02-21 08:32:00,17.0,10.0,30.31,ESE,106,1.0,3.0,74,0.00,,,0.00,,2013-02-21 14:32:00,
2013-02-21 08:42:00,17.0,10.0,30.31,ESE,106,1.0,3.0,74,0.00,,,0.00,,2013-02-21 14:42:00,
2013-02-21 08:52:00,18.0,11.0,30.30,East,98,2.0,5.0,72,0.00,,,0.00,,2013-02-21 14:52:00,
2013-02-21 09:01:00,19.0,11.0,30.30,ESE,111,1.0,6.0,71,0.00,,,0.00,,2013-02-21 15:01:00,
2013-02-21 09:12:00,19.0,11.0,30.30,ESE,111,1.0,6.0,71,0.00,,,0.00,,2013-02-21 15:12:00,
2013-02-21 09:21:00,20.0,12.0,30.31,SE,136,2.0,7.0,70,0.00,,,0.00,,2013-02-21 15:21:00,
2013-02-21 09:32:00,21.0,13.0,30.29,East,85,4.0,10.0,70,0.00,,,0.00,,2013-02-21 15:32:00,
2013-02-21 09:42:00,21.0,13.0,30.29,East,85,4.0,10.0,70,0.00,,,0.00,,2013-02-21 15:42:00,
2013-02-21 09:52:00,21.0,12.0,30.30,ESE,114,2.0,8.0,69,0.00,,,0.00,,2013-02-21 15:52:00,
2013-02-21 10:01:00,21.0,12.0,30.30,ESE,117,2.0,8.0,68,0.00,,,0.00,,2013-02-21 16:01:00,
2013-02-21 10:12:00,22.0,13.0,30.30,ESE,103,2.0,5.0,68,0.00,,,0.00,,2013-02-21 16:12:00,
2013-02-21 10:21:00,22.0,13.0,30.30,ESE,103,2.0,5.0,68,0.00,,,0.00,,2013-02-21 16:21:00,
2013-02-21 10:32:00,23.0,14.0,30.29,ESE,102,3.0,10.0,67,0.00,,,0.00,,2013-02-21 16:32:00,
2013-02-21 10:42:00,23.0,14.0,30.27,SSE,167,3.0,6.0,67,0.00,,,0.00,,2013-02-21 16:42:00,
2013-02-21 10:52:00,23.0,14.0,30.27,SSE,167,3.0,6.0,67,0.00,,,0.00,,2013-02-21 16:52:00,
2013-02-21 11:01:00,23.0,14.0,30.27,SSE,152,2.0,8.0,67,0.00,,,0.00,,2013-02-21 17:01:00,
2013-02-21 11:11:00,24.0,15.0,30.26,East,96,3.0,7.0,68,0.00,,,0.00,,2013-02-21 17:11:00,
2013-02-21 11:21:00,24.0,15.0,30.26,East,96,3.0,7.0,68,0.00,,,0.00,,2013-02-21 17:21:00,
2013-02-21 11:32:00,25.0,16.0,30.25,East,96,2.0,8.0,68,0.00,,,0.00,,2013-02-21 17:32:00,
2013-02-21 11:42:00,25.0,16.0,30.25,East,96,2.0,8.0,68,0.00,,,0.00,,2013-02-21 17:42:00,
2013-02-21 11:52:00,25.0,16.0,30.23,ESE,116,4.0,9.0,69,0.00,,,0.00,,2013-02-21 17:52:00,
2013-02-21 12:01:00,25.0,17.0,30.23,ENE,74,2.0,6.0,71,0.00,,,0.00,,2013-02-21 18:01:00,
2013-02-21 12:11:00,25.0,17.0,30.23,ENE,74,2.0,6.0,71,0.00,,,0.00,,2013-02-21 18:11:00,
2013-02-21 12:22:00,26.0,18.0,30.21,SE,140,2.0,14.0,71,0.00,,,0.00,,2013-02-21 18:22:00,
2013-02-21 12:31:00,26.0,19.0,30.20,East,86,2.0,7.0,73,0.00,,,0.00,,2013-02-21 18:31:00,
2013-02-21 12:42:00,26.0,19.0,30.20,East,86,2.0,7.0,73,0.00,,,0.00,,2013-02-21 18:42:00,
2013-02-21 12:52:00,26.0,19.0,30.18,East,82,4.0,8.0,74,0.00,,,0.00,,2013-02-21 18:52:00,
2013-02-21 13:01:00,26.0,19.0,30.16,ENE,77,2.0,5.0,75,0.00,,,0.00,,2013-02-21 19:01:00,
2013-02-21 13:12:00,26.0,19.0,30.16,ENE,77,2.0,5.0,75,0.00,,,0.00,,2013-02-21 19:12:00,
2013-02-21 13:21:00,27.0,20.0,30.16,East,88,2.0,5.0,76,0.00,,,0.00,,2013-02-21 19:21:00,
2013-02-21 13:31:00,27.0,20.0,30.17,ESE,102,3.0,5.0,76,0.00,,,0.00,,2013-02-21 19:31:00,
2013-02-21 13:41:00,27.0,20.0,30.17,ESE,102,3.0,5.0,76,0.00,,,0.00,,2013-02-21 19:41:00,
2013-02-21 13:52:00,28.0,21.0,30.18,East,86,2.0,7.0,76,0.00,,,0.00,,2013-02-21 19:52:00,
2013-02-21 14:01:00,28.0,21.0,30.16,ESE,116,3.0,6.0,76,0.00,,,0.00,,2013-02-21 20:01:00,
2013-02-21 14:11:00,28.0,21.0,30.16,ESE,110,2.0,7.0,76,0.00,,,0.00,,2013-02-21 20:11:00,
2013-02-21 14:21:00,28.0,21.0,30.16,ESE,110,2.0,7.0,76,0.00,,,0.00,,2013-02-21 20:21:00,
2013-02-21 14:32:00,28.0,22.0,30.15,East,95,4.0,9.0,77,0.00,,,0.00,,2013-02-21 20:32:00,
2013-02-21 14:41:00,28.0,22.0,30.15,East,95,4.0,9.0,77,0.00,,,0.00,,2013-02-21 20:41:00,
2013-02-21 14:52:00,28.0,22.0,30.14,East,98,3.0,10.0,77,0.00,,,0.00,,2013-02-21 20:52:00,
2013-02-21 15:02:00,29.0,23.0,30.12,East,80,3.0,9.0,77,0.00,,,0.00,,2013-02-21 21:02:00,
2013-02-21 15:11:00,29.0,23.0,30.12,East,88,3.0,11.0,78,0.00,,,0.00,,2013-02-21 21:11:00,
2013-02-21 15:21:00,29.0,23.0,30.12,East,88,3.0,11.0,78,0.00,,,0.00,,2013-02-21 21:21:00,
2013-02-21 15:31:00,28.0,22.0,30.10,East,89,5.0,9.0,78,0.00,,,0.00,,2013-02-21 21:31:00,
2013-02-21 15:42:00,28.0,22.0,30.10,ENE,69,5.0,9.0,78,0.00,,,0.00,,2013-02-21 21:42:00,
2013-02-21 15:52:00,28.0,22.0,30.10,ENE,69,5.0,9.0,78,0.00,,,0.00,,2013-02-21 21:52:00,
2013-02-21 16:01:00,28.0,22.0,30.09,ENE,75,4.0,8.0,78,0.00,,,0.00,,2013-02-21 22:01:00,
2013-02-21 16:11:00,28.0,22.0,30.09,ENE,75,4.0,8.0,78,0.00,,,0.00,,2013-02-21 22:11:00,
2013-02-21 16:21:00,28.0,22.0,30.07,East,93,6.0,11.0,78,0.00,,,0.00,,2013-02-21 22:21:00,
2013-02-21 16:31:00,28.0,22.0,30.06,East,96,4.0,13.0,79,0.00,,,0.00,,2013-02-21 22:31:00,
2013-02-21 16:42:00,28.0,22.0,30.05,East,88,4.0,14.0,79,0.00,,,0.00,,2013-02-21 22:42:00,
2013-02-21 16:52:00,28.0,22.0,30.05,East,88,4.0,14.0,79,0.00,,,0.00,,2013-02-21 22:52:00,
2013-02-21 17:01:00,29.0,23.0,30.06,ESE,113,3.0,10.0,79,0.00,,,0.00,,2013-02-21 23:01:00,
2013-02-21 17:11:00,29.0,23.0,30.06,ESE,113,3.0,10.0,79,0.00,,,0.00,,2013-02-21 23:11:00,
2013-02-21 17:21:00,29.0,24.0,30.05,ESE,104,3.0,13.0,80,0.00,,,0.00,,2013-02-21 23:21:00,
2013-02-21 17:32:00,29.0,24.0,30.04,SSE,158,4.0,12.0,80,0.00,,,0.00,,2013-02-21 23:32:00,
2013-02-21 17:41:00,29.0,24.0,30.04,SSE,158,4.0,12.0,80,0.00,,,0.00,,2013-02-21 23:41:00,
2013-02-21 17:52:00,29.0,24.0,30.02,SE,126,4.0,9.0,80,0.00,,,0.00,,2013-02-21 23:52:00,
2013-02-21 18:01:00,29.0,24.0,30.01,East,83,4.0,11.0,80,0.00,,,0.00,,2013-02-22 00:01:00,
2013-02-21 18:11:00,29.0,24.0,30.01,East,83,4.0,11.0,80,0.00,,,0.00,,2013-02-22 00:11:00,
2013-02-21 18:21:00,29.0,24.0,30.00,East,98,7.0,14.0,80,0.00,,,0.00,,2013-02-22 00:21:00,
2013-02-21 18:31:00,29.0,24.0,29.99,East,90,6.0,13.0,80,0.00,,,0.00,,2013-02-22 00:31:00,
2013-02-21 18:41:00,29.0,24.0,29.99,East,90,6.0,13.0,80,0.00,,,0.00,,2013-02-22 00:41:00,
2013-02-21 18:52:00,30.0,24.0,29.98,East,87,8.0,15.0,79,0.00,,,0.00,,2013-02-22 00:52:00,
2013-02-21 19:01:00,29.0,23.0,29.97,ESE,104,7.0,16.0,77,0.00,,,0.00,,2013-02-22 01:01:00,
2013-02-21 19:11:00,29.0,23.0,29.97,ESE,104,7.0,16.0,77,0.00,,,0.00,,2013-02-22 01:11:00,
2013-02-21 19:21:00,29.0,23.0,29.97,ESE,108,6.0,15.0,77,0.00,,,0.00,,2013-02-22 01:21:00,
2013-02-21 19:32:00,29.0,23.0,29.96,East,91,9.0,14.0,77,0.00,,,0.00,,2013-02-22 01:32:00,
2013-02-21 19:42:00,29.0,23.0,29.96,East,91,9.0,14.0,77,0.00,,,0.00,,2013-02-22 01:42:00,
2013-02-21 19:52:00,28.0,22.0,29.94,ENE,67,5.0,14.0,79,0.00,,,0.00,,2013-02-22 01:52:00,
2013-02-21 20:02:00,28.0,22.0,29.95,East,98,6.0,15.0,79,0.00,,,0.00,,2013-02-22 02:02:00,
2013-02-21 20:11:00,28.0,22.0,29.95,East,98,6.0,15.0,79,0.00,,,0.00,,2013-02-22 02:11:00,
2013-02-21 20:21:00,28.0,23.0,29.93,East,80,4.0,14.0,80,0.00,,,0.00,,2013-02-22 02:21:00,
2013-02-21 20:31:00,27.0,22.0,29.94,East,93,5.0,9.0,82,0.00,,,0.00,,2013-02-22 02:31:00,
2013-02-21 20:42:00,27.0,22.0,29.94,SE,132,5.0,13.0,82,0.00,,,0.00,,2013-02-22 02:42:00,
2013-02-21 20:52:00,27.0,22.0,29.94,SE,132,5.0,13.0,82,0.00,,,0.00,,2013-02-22 02:52:00,
2013-02-21 21:01:00,27.0,23.0,29.93,East,95,5.0,10.0,83,0.00,,,0.00,,2013-02-22 03:01:00,
2013-02-21 21:11:00,27.0,23.0,29.93,East,95,5.0,10.0,83,0.00,,,0.00,,2013-02-22 03:11:00,
2013-02-21 21:21:00,26.0,22.0,29.93,SE,138,6.0,9.0,83,0.00,,,0.00,,2013-02-22 03:21:00,
2013-02-21 21:31:00,26.0,22.0,29.92,East,96,4.0,13.0,83,0.00,,,0.00,,2013-02-22 03:31:00,
2013-02-21 21:41:00,26.0,22.0,29.92,East,96,4.0,13.0,83,0.00,,,0.00,,2013-02-22 03:41:00,
2013-02-21 21:51:00,25.0,21.0,29.91,East,89,7.0,14.0,84,0.00,,,0.00,,2013-02-22 03:51:00,
2013-02-21 22:01:00,25.0,21.0,29.91,East,100,4.0,9.0,84,0.00,,,0.00,,2013-02-22 04:01:00,
2013-02-21 22:11:00,25.0,21.0,29.91,East,93,5.0,13.0,85,0.00,,,0.00,,2013-02-22 04:11:00,
2013-02-21 22:21:00,25.0,21.0,29.91,East,93,5.0,13.0,85,0.00,,,0.00,,2013-02-22 04:21:00,
2013-02-21 22:32:00,25.0,21.0,29.90,ESE,106,4.0,12.0,84,0.00,,,0.00,,2013-02-22 04:32:00,
2013-02-21 22:42:00,25.0,21.0,29.90,ESE,106,4.0,12.0,84,0.00,,,0.00,,2013-02-22 04:42:00,
2013-02-21 22:52:00,25.0,21.0,29.90,ESE,117,4.0,11.0,84,0.00,,,0.00,,2013-02-22 04:52:00,
2013-02-21 23:01:00,25.0,21.0,29.90,East,85,4.0,8.0,85,0.00,,,0.00,,2013-02-22 05:01:00,
2013-02-21 23:12:00,25.0,21.0,29.90,East,85,4.0,8.0,85,0.00,,,0.00,,2013-02-22 05:12:00,
2013-02-21 23:22:00,25.0,21.0,29.89,ESE,121,3.0,9.0,85,0.00,,,0.00,,2013-02-22 05:22:00,
2013-02-21 23:32:00,25.0,21.0,29.89,SE,138,6.0,11.0,85,0.00,,,0.00,,2013-02-22 05:32:00,
2013-02-21 23:41:00,25.0,21.0,29.89,SE,138,6.0,11.0,85,0.00,,,0.00,,2013-02-22 05:41:00,
2013-02-21 23:52:00,25.0,21.0,29.88,SE,144,5.0,9.0,85,0.00,,,0.00,,2013-02-22 05:52:00,